{"data":{"norad_id":62111,"epoch":"2026-05-24T19:31:46.010208Z","epoch_age_seconds":91370,"freshness":"FRESH","line1":"1 62111U 24221A   26144.81372697  .00002704  00000+0  16120-3 0  9997","line2":"2 62111  49.9440 275.9286 0007605 207.1895 152.8658 15.14463360 82640","mean_motion":15.1446336,"eccentricity":0.0007605,"inclination_deg":49.944,"raan_deg":275.9286,"arg_perigee_deg":207.1895,"mean_anomaly_deg":152.8658,"bstar":0.0001612,"rev_number":8264,"period_min":95.083185109213,"perigee_km":517.36021746913,"apogee_km":527.85625097037,"semimajor_km":6900.7452342197,"source":"CELESTRAK","updated_at":"2026-05-25T13:38:02.765136Z"}}